Weather Roundup
Issued by NWS Chicago, IL

Home | Current Version | Previous Version | Graphics & Text | Print | Product List | Glossary On
Versions: 1 2 3 4 5 6 7 8 9 10 11 12 13 14 15 16 17 18 19 20 21 22 23 24 25 26 27 28 29 30 31 32 33 34 35 36 37 38 39 40 41 42 43 44 45 46 47 48 49 50
000
NZUS59 KLOT 200612
HRRLOT

CHICAGO AREA WEATHER ROUNDUP
NATIONAL WEATHER SERVICE CHICAGO/ROMEOVILLE IL
1200 AM CST FRI JAN 20 2017

NOTE: "FAIR" INDICATES FEW OR NO CLOUDS BELOW 12,000 FEET WITH NO
SIGNIFICANT WEATHER AND/OR OBSTRUCTIONS TO VISIBILITY.

* THESE STATIONS ARE NOT UNDER NWS QUALITY CONTROL. THEY ALSO MAY NOT
  REPORT WEATHER SUCH AS PRECIPITATION OR FOG.

ILZ005-006-012>014-019>023-200700-
NORTHEAST ILLINOIS

CITY           SKY/WX    TMP DP  RH WIND       PRES   REMARKS
OHARE          LGT RAIN  38  37  97 E8        29.68F FOG
6HR MIN TEMP:  37; 6HR MAX TEMP:  39; 6HR PCP:  0.41;

MIDWAY         LGT RAIN  38  36  92 E12G23    29.69F FOG
6HR MIN TEMP:  37; 6HR MAX TEMP:  39; 6HR PCP:  0.64;

AURORA         CLOUDY    39  38  96 NE6       29.68F FOG
6HR MIN TEMP:  38; 6HR MAX TEMP:  40; 6HR PCP:  0.14;

LANSING*       RAIN      38  38 100 E7        29.68F
JOLIET*        DRIZZLE   40  40  98 E7        29.67F
WAUKEGAN       LGT RAIN  37  36  96 NE7       29.71F VSB 1
6HR MIN TEMP:  36; 6HR MAX TEMP:  37; 6HR PCP:  0.28;

DUPAGE AIRPORT LGT RAIN  39  37  92 NE8       29.67F FOG
6HR MIN TEMP:  38; 6HR MAX TEMP:  39; 6HR PCP:  0.19;

WHEELING       LGT RAIN  37  36  96 NE8       29.71F FOG
6HR MIN TEMP:  37; 6HR MAX TEMP:  38; 6HR PCP:  0.29;

KANKAKEE*      RAIN      40  39  98 E14       29.65F
MORRIS*        CLOUDY    38  38  97 NE3       29.67F FOG
LEWIS AIRPORT* LGT RAIN  38  38 100 E8        29.67F
NORTHERLY ISL    N/A     35  34  96 NE8         N/A  WCI  29
$$

WIZ051-052-058>065-066-070>072-200700-
SOUTHEAST WISCONSIN

CITY           SKY/WX    TMP DP  RH WIND       PRES   REMARKS
MILWAUKEE      LGT RAIN  38  36  92 E8        29.75F FOG
6HR MIN TEMP:  36; 6HR MAX TEMP:  38; 6HR PCP:  0.07;

KENOSHA*       LGT RAIN  37  36  96 E7        29.73F VSB 3/4
RACINE*        RAIN      38  36  92 E7        29.76F FOG
WAUKESHA       RAIN      34  34 100 NE5       29.76F WCI  30
WEST BEND      RAIN      34  34 100 CALM      29.77F VSB 1/4
$$

INZ001>003-010>013-019-020-200700-
NORTHWEST INDIANA

CITY           SKY/WX    TMP DP  RH WIND       PRES   REMARKS
GARY*          RAIN      39  38  99 NE8       29.69F
6HR MIN TEMP:  38; 6HR MAX TEMP:  40; 6HR PCP:  0.38;

MICHIGAN CITY* NOT AVBL
RENSSELAER*    NOT AVBL
VALPARAISO     RAIN      39  39 100 E9        29.69F FOG
$$

LMZ740>746-200700-
SOUTHERN LAKE MICHIGAN

STATION/POSITION TIME  SKY/WX   TEMP WIND        PRES    VSBY
                                AIR  DIR/SP/G
                 (UTC)          (F)  (DEG/KT/KT) (MB)    (MI)
HARRISON CRIB    0540            38   70/ 15/ 17   N/A
BURNHAM HARBOR   0600            35   50/  7/  9   N/A
CALUMET HARBOR   0548                 50/  9/ 14 1005.3F
BURNS HARBOR     0540            35   70/  7/  9 1006.8F
MICHIGAN CITY    0540            38   40/  9/  9   N/A
$$

ABBREVIATIONS USED IN REMARKS
   TC - TEMPERATURE IN CELSIUS
  WCI - WIND CHILL INDEX
   HX - HEAT INDEX
  VSB - VISIBILITY
$$



USA.gov is the U.S. government's official web portal to all federal, state and local government web resources and services.